NOZ736 ENGM-ENEV

Flight info

Callsign NOZ736
Flight time N/A
Altitude 35000
Route RIBBE DCT GIGNI DCT SOMUB DCT GUBAV DCT PENNO
Aircraft B738/M-SDE2E3FGHIRWXY/LB1

Departure

Time N/A
Airport Oslo-Gardermoen International Airport (ENGM)

Arrival

Time 2026-04-20 18:47
Airport Harstad/Narvik Airport (ENEV)
Time Latitude Longitude Altitude Speed Heading
2026-04-20 18:26 67.40108 15.53013 27824 ft 410 kts 19°
2026-04-20 18:26 67.42747 15.55774 27355 ft 407 kts 19°
2026-04-20 18:26 67.45363 15.58516 26924 ft 404 kts 19°
2026-04-20 18:26 67.47961 15.61247 26466 ft 401 kts 19°
2026-04-20 18:27 67.50546 15.63970 26013 ft 399 kts 19°
2026-04-20 18:27 67.53107 15.66674 25566 ft 396 kts 19°
2026-04-20 18:27 67.55648 15.69366 25139 ft 393 kts 19°
2026-04-20 18:27 67.58175 15.72046 24691 ft 391 kts 19°
2026-04-20 18:28 67.60691 15.74721 24270 ft 389 kts 19°
2026-04-20 18:28 67.63154 15.77346 23797 ft 387 kts 19°
2026-04-20 18:28 67.65646 15.80008 23294 ft 385 kts 19°
2026-04-20 18:28 67.68121 15.82660 22842 ft 383 kts 19°
2026-04-20 18:29 67.70575 15.85295 22408 ft 379 kts 19°
2026-04-20 18:29 67.73006 15.87910 21959 ft 376 kts 19°
2026-04-20 18:29 67.75416 15.90509 21564 ft 372 kts 19°
2026-04-20 18:29 67.77798 15.93083 21144 ft 369 kts 19°
2026-04-20 18:30 67.80167 15.95648 20720 ft 366 kts 19°
2026-04-20 18:30 67.82482 15.98160 20301 ft 363 kts 19°
2026-04-20 18:30 67.84815 16.00697 19893 ft 361 kts 19°
2026-04-20 18:30 67.87131 16.03219 19491 ft 359 kts 19°
2026-04-20 18:31 67.89435 16.05734 19082 ft 357 kts 19°
2026-04-20 18:31 67.91729 16.08245 18655 ft 356 kts 19°
2026-04-20 18:31 67.94022 16.10656 18207 ft 352 kts 14°
2026-04-20 18:31 67.96378 16.12220 17817 ft 346 kts
2026-04-20 18:32 67.98734 16.13341 17396 ft 343 kts
2026-04-20 18:32 68.01049 16.14347 17013 ft 340 kts
2026-04-20 18:32 68.03374 16.15373 16609 ft 338 kts
2026-04-20 18:32 68.05684 16.16434 16221 ft 336 kts
2026-04-20 18:33 68.07975 16.17523 15847 ft 334 kts
2026-04-20 18:33 68.10252 16.18632 15455 ft 332 kts
2026-04-20 18:33 68.12512 16.19751 15074 ft 330 kts
2026-04-20 18:33 68.14764 16.20877 14685 ft 328 kts
2026-04-20 18:34 68.17002 16.22001 14304 ft 326 kts
2026-04-20 18:34 68.19227 16.23124 13882 ft 325 kts
2026-04-20 18:34 68.21411 16.24229 13475 ft 323 kts
2026-04-20 18:34 68.23612 16.25344 13093 ft 320 kts
2026-04-20 18:35 68.25795 16.26455 12713 ft 318 kts
2026-04-20 18:35 68.27958 16.27557 12342 ft 316 kts
2026-04-20 18:35 68.30113 16.28657 11974 ft 313 kts
2026-04-20 18:35 68.32241 16.29745 11612 ft 311 kts
2026-04-20 18:36 68.34360 16.30829 11235 ft 309 kts
2026-04-20 18:36 68.36456 16.31906 11027 ft 302 kts
2026-04-20 18:36 68.38462 16.32941 10901 ft 293 kts
2026-04-20 18:36 68.40436 16.33913 10783 ft 283 kts
2026-04-20 18:37 68.42362 16.34162 10659 ft 272 kts 355°
2026-04-20 18:37 68.44221 16.34063 10540 ft 263 kts 354°
2026-04-20 18:37 68.46014 16.33923 10423 ft 253 kts 354°
2026-04-20 18:37 68.47755 16.33802 10204 ft 247 kts 354°
2026-04-20 18:38 68.49471 16.33697 9925 ft 247 kts 354°
2026-04-20 18:38 68.51198 16.33605 9686 ft 250 kts 354°
2026-04-20 18:38 68.52969 16.33522 9409 ft 259 kts 355°
2026-04-20 18:38 68.54786 16.33450 9138 ft 263 kts 355°
2026-04-20 18:39 68.56590 16.33389 8839 ft 262 kts 355°
2026-04-20 18:39 68.58408 16.33333 8558 ft 261 kts 355°
2026-04-20 18:39 68.60224 16.33278 8263 ft 260 kts 354°
2026-04-20 18:39 68.62024 16.33232 7999 ft 257 kts 355°
2026-04-20 18:40 68.63812 16.33178 7716 ft 257 kts 355°
2026-04-20 18:40 68.65594 16.33123 7441 ft 256 kts 354°
2026-04-20 18:40 68.67368 16.33072 7185 ft 254 kts 354°
2026-04-20 18:40 68.69109 16.33021 6923 ft 253 kts 354°
2026-04-20 18:41 68.70867 16.32995 6720 ft 251 kts 358°
2026-04-20 18:41 68.72533 16.34325 6573 ft 255 kts 29°
2026-04-20 18:41 68.73744 16.37893 6354 ft 260 kts 61°
2026-04-20 18:41 68.74232 16.42614 6287 ft 255 kts 83°
2026-04-20 18:42 68.74332 16.47453 6175 ft 250 kts 87°
2026-04-20 18:42 68.74381 16.52197 6040 ft 247 kts 87°
2026-04-20 18:42 68.74436 16.56927 5883 ft 249 kts 87°
2026-04-20 18:42 68.74264 16.61648 5618 ft 249 kts 116°
2026-04-20 18:43 68.73186 16.65016 5435 ft 234 kts 159°
2026-04-20 18:43 68.71664 16.65742 5227 ft 219 kts 189°
2026-04-20 18:43 68.70134 16.65628 4987 ft 221 kts 185°
2026-04-20 18:43 68.68587 16.65699 4759 ft 223 kts 184°
2026-04-20 18:44 68.67028 16.65853 4532 ft 224 kts 182°
2026-04-20 18:44 68.65489 16.65989 4390 ft 219 kts 184°
2026-04-20 18:44 68.63964 16.66114 3884 ft 225 kts 182°
2026-04-20 18:44 68.62369 16.66294 3261 ft 227 kts 180°
2026-04-20 18:45 68.60835 16.66500 2818 ft 221 kts 181°
2026-04-20 18:45 68.59354 16.66645 2430 ft 212 kts 181°
2026-04-20 18:45 68.57907 16.66807 2059 ft 204 kts 181°
2026-04-20 18:45 68.56513 16.66968 1707 ft 197 kts 181°
2026-04-20 18:46 68.55180 16.67122 1340 ft 185 kts 181°
2026-04-20 18:46 68.53968 16.67262 1019 ft 165 kts 181°
2026-04-20 18:46 68.52880 16.67389 741 ft 150 kts 180°
2026-04-20 18:46 68.51855 16.67518 464 ft 146 kts 181°
2026-04-20 18:47 68.50842 16.67625 242 ft 144 kts 181°
2026-04-20 18:47 68.49869 16.67735 88 ft 134 kts 182°
2026-04-20 18:47 68.49103 16.67818 96 ft 80 kts 177°
2026-04-20 18:47 68.48748 16.67861 92 ft 35 kts 178°
2026-04-20 18:48 68.48528 16.67887 95 ft 18 kts 178°
2026-04-20 18:48 68.48444 16.67965 92 ft 13 kts 109°
2026-04-20 18:48 68.48449 16.68214 98 ft 13 kts 53°
2026-04-20 18:48 68.48539 16.68251 98 ft 14 kts 358°
2026-04-20 18:49 68.48649 16.68235 91 ft 18 kts 356°
2026-04-20 18:49 68.48778 16.68223 90 ft 16 kts 358°
2026-04-20 18:49 68.48842 16.68218 87 ft 9 kts 358°
2026-04-20 18:49 68.48887 16.68253 87 ft 7 kts 59°
2026-04-20 18:50 68.48892 16.68384 90 ft 7 kts 88°
2026-04-20 18:50 68.48901 16.68506 92 ft 7 kts 44°
2026-04-20 18:50 68.48956 16.68519 90 ft 8 kts 358°
2026-04-20 18:50 68.48965 16.68517 93 ft 0 kts 355°
2026-04-20 18:51 68.48976 16.68517 92 ft 1 kts 359°
2026-04-20 18:51 68.48979 16.68517 92 ft 0 kts 358°